x

9442396 - La Push, Wa (lapw1) Weather Station

7:30 - Tue 6th Dec 2016 All times are PST. -8 hours from GMT.

  • Wind
    7mph, 14mph gusts
  • Sea Temp 41°f
  • Air Temp 33°f
  • Sea Pressure 1020mb
  • 9442396 - La Push, Wa
  • 9442396 - La Push, Wa

More Historic Weather Station data

Upgrade to MSW Pro to gain access to the past 30 days of data for over 8000 Wavebouys and Weather Stations around the globe.

Join Pro

Comparision Forecast

View Surf forecast
   
mar. 12/06 7:30 7 14 mph 1020mb 41f 33f
7:24 7 13 mph 1019.9mb 41f 33f
7:18 6 9 mph 1019.8mb 41f 33f
7:12 6 10 mph 1019.7mb 41f 33f
7:06 6 10 mph 1019.6mb 41f 33f
7:00 6 10 mph 1019.5mb 41f 33f
6:36 6 13 mph 1019.3mb 41f 33f
6:30 7 9 mph 1019.2mb 41f 33f
6:24 8 10 mph 1019.2mb 42f 33f
6:18 7 13 mph 1019.2mb 43f 33f
6:12 7 13 mph 1019.1mb 43f 33f
6:06 8 14 mph 1019.1mb 43f 34f
6:00 7 14 mph 1019mb 44f 34f
5:36 7 14 mph 1018.8mb 45f 33f
5:30 6 10 mph 1018.7mb 44f 33f
5:24 7 13 mph 1018.7mb 44f 34f
5:18 8 15 mph 1018.6mb 45f 33f
5:12 8 14 mph 1018.5mb 45f 33f
5:06 8 13 mph 1018.5mb 45f 33f
5:00 8 14 mph 1018.5mb 45f 33f
4:36 6 13 mph 1018.3mb 44f 33f
4:30 6 13 mph 1018.2mb 44f 33f
4:24 6 14 mph 1018.2mb 44f 33f
4:18 5 13 mph 1018.1mb 43f 33f
4:12 7 14 mph 1018mb 42f 33f
4:06 8 13 mph 1018mb 42f 33f
4:00 8 14 mph 1017.9mb 42f 33f
3:36 6 10 mph 1018mb 40f 33f
3:30 3 9 mph 1017.9mb 40f 33f
3:24 5 9 mph 1018mb 40f 33f
3:18 5 9 mph 1018mb 40f 33f
3:12 5 8 mph 1017.9mb 40f 32f
3:06 5 7 mph 1017.9mb 40f 32f
3:00 5 6 mph 1017.8mb 41f 32f
2:36 3 6 mph 1017.6mb 40f 31f
2:30 5 6 mph 1017.6mb 41f 31f
2:24 3 5 mph 1017.5mb 40f 31f
2:18 3 6 mph 1017.5mb 40f 31f
2:12 5 6 mph 1017.4mb 40f 31f
2:06 5 6 mph 1017.3mb 40f 31f
2:00 5 6 mph 1017.3mb 40f 31f
1:36 6 7 mph 1017.1mb 41f 31f
1:30 6 7 mph 1017.1mb 41f 31f
1:24 5 7 mph 1017.1mb 41f 31f
1:18 5 7 mph 1017.2mb 41f 31f
1:12 6 7 mph 1017.1mb 41f 31f
1:06 7
mph
1017.1mb 41f 31f
1:00 7 8 mph 1017.1mb 41f 32f
12:36 6 8 mph 1017.1mb 41f 32f
12:30 6 7 mph 1017mb 41f 31f
12:24 6 7 mph 1017mb 41f 31f
12:18 6 8 mph 1017mb 41f 31f
12:12 6 7 mph 1017mb 41f 32f
12:06 6 7 mph 1017mb 41f 32f
12:00 5 7 mph 1016.9mb 41f 31f
lun. 12/05 11:36 6 8 mph 1016.8mb 40f 32f
11:30 7 8 mph 1016.8mb 40f 32f
11:24 6 8 mph 1016.9mb 40f 32f
11:18 6 8 mph 1016.9mb 40f 32f
11:12 6 8 mph 1016.8mb 40f 32f
11:06 7 8 mph 1016.8mb 40f 32f
11:00 7 8 mph 1016.8mb 40f 32f
10:36 6 9 mph 1016.7mb 40f 32f
10:30 8 9 mph 1016.8mb 40f 32f
10:24 6 8 mph 1016.7mb 40f 32f
10:18 5 8 mph 1016.7mb 40f 32f
10:12 6 8 mph 1016.8mb 40f 32f
10:06 6 7 mph 1016.7mb 40f 33f
10:00 6 7 mph 1016.7mb 40f 33f
9:36 6 7 mph 1016.6mb 40f 33f
9:30 6 8 mph 1016.5mb 40f 33f
9:24 5 8 mph 1016.5mb 40f 33f
9:18 6 7 mph 1016.5mb 40f 33f
9:12 5 7 mph 1016.4mb 40f 33f
9:06 6 8 mph 1016.4mb 40f 33f
9:00 5 7 mph 1016.4mb 40f 33f
8:36 6 7 mph 1016.3mb 41f 33f
8:30 5 6 mph 1016.3mb 41f 33f
8:24 5 6 mph 1016.2mb 41f 33f
8:18 3 6 mph 1016.2mb 41f 33f
8:12 3 5 mph 1016.2mb 41f 33f
8:06 3 5 mph 1016.2mb 41f 33f
8:00 3 6 mph 1016.3mb 41f 33f
7:36 5 8 mph 1016.4mb 41f 33f
7:30 5 8 mph 1016.3mb 41f 34f
7:24 6 9 mph 1016.3mb 41f 34f
7:18 6 10 mph 1016.3mb 41f 34f
7:12 7 10 mph 1016.3mb 41f 34f
7:06 6 9 mph 1016.3mb 41f 34f
7:00 5 8 mph 1016.4mb 41f 33f
6:36 3 7 mph 1016.3mb 41f 33f
6:30 5 7 mph 1016.1mb 41f 33f
6:24 5 9 mph 1016.1mb 41f 33f
6:18 6 7 mph 1016.2mb 41f 33f
6:12 5 7 mph 1016.1mb 41f 33f
6:06 5 7 mph 1016mb 41f 33f
6:00 6 7 mph 1016.1mb 41f 33f
5:36 3 5 mph 1016.1mb 42f 33f
5:30 3 6 mph 1016mb 42f 33f
5:24 6 7 mph 1016mb 42f 33f
5:18 5 6 mph 1016.1mb 42f 34f
5:12 5
mph
1016.1mb 42f 34f
5:06 3 5 mph 1016.1mb 42f 34f
5:00 3 5 mph 1016.1mb 42f 34f
4:36 2 5 mph 1016.1mb 42f 34f
4:30 3 6 mph 1016.1mb 42f 34f
4:24 3 6 mph 1016.2mb 42f 34f
4:18 2 5 mph 1016.4mb 42f 34f
4:12 3 6 mph 1016.5mb 42f 34f
4:06 5 6 mph 1016.6mb 42f 34f
4:00 2 5 mph 1016.6mb 42f 34f
3:36 5 7 mph 1016.6mb 42f 34f
3:30 5 7 mph 1016.5mb 42f 33f
3:24 6 7 mph 1016.5mb 42f 33f
3:18 6 8 mph 1016.6mb 42f 33f
3:12 3 5 mph 1016.5mb 42f 34f
3:06 3 5 mph 1016.4mb 42f 33f
3:00 3 5 mph 1016.6mb 42f 34f
2:36 8 11 mph 1016.8mb 42f 35f
2:30 11 15 mph 1016.9mb 43f 35f
2:24 15 21 mph 1017mb 43f 37f
2:18 7 16 mph 1016.7mb 42f 38f
2:12 2 6 mph 1016.2mb 42f 38f
2:06 5 6 mph 1016.2mb 42f 38f
2:00 3 7 mph 1016.2mb 42f 38f
1:36 5 7 mph 1016.4mb 41f 38f
1:30 3 6 mph 1016.5mb 41f 37f
1:24 5 8 mph 1016.5mb 41f 37f
1:18 5 7 mph 1016.6mb 41f 37f
1:12 5 9 mph 1016.7mb 41f 37f
1:06 5 8 mph 1016.7mb 41f 37f
1:00 6 9 mph 1016.8mb 41f 37f
12:36 6 8 mph 1017.1mb 42f 37f
12:30 6 8 mph 1017.1mb 42f 37f
12:24 7 10 mph 1017.1mb 42f 37f
12:18 3 5 mph 1017.2mb 42f 38f
12:12 2 8 mph 1017.2mb 42f 38f
12:06 6 8 mph 1017.3mb 42f 38f
12:00 3 8 mph 1017.2mb 42f 38f
11:36 3 9 mph 1017.4mb 42f 38f
11:30 5 11 mph 1017.4mb 42f 38f
11:24 5 7 mph 1017.4mb 42f 38f
11:18 5 6 mph 1017.4mb 42f 38f
11:12 3 7 mph 1017.5mb 42f 38f
11:06 5 8 mph 1017.5mb 42f 38f
11:00 5 9 mph 1017.5mb 42f 38f
10:36 5 7 mph 1017.3mb 41f 37f
10:30 6 8 mph 1017.4mb 42f 36f
10:24 5 8 mph 1017.5mb 42f 36f
10:18 6 8 mph 1017.6mb 42f 35f
10:12 6 8 mph 1017.5mb 41f 35f
10:06 3 6 mph 1017.6mb 42f 35f
10:00 5 8 mph 1017.6mb 42f 34f
9:36 6 8 mph 1017.5mb 42f 34f
9:30 6 7 mph 1017.4mb 42f 34f
9:24 5 6 mph 1017.4mb 42f 34f
9:18 6 7 mph 1017.4mb 42f 34f
9:12 6 7 mph 1017.5mb 42f 34f
9:06 6 7 mph 1017.5mb 42f 34f
9:00 6 8 mph 1017.6mb 42f 34f
8:36 3 8 mph 1017.5mb 42f 35f
8:30 6 7 mph 1017.5mb 42f 35f
8:24 2 7 mph 1017.7mb 43f 35f
8:18 7 11 mph 1017.7mb 42f 35f
8:12 7 11 mph 1017.7mb 43f 34f
8:06 7 11 mph 1017.6mb 43f 35f
8:00 8 13 mph 1017.5mb 43f 35f
7:54 6 8 mph 1017.4mb 42f 35f
7:48 6 7 mph 1017.4mb 42f 35f
7:36 5 9 mph 1017.4mb 42f 34f
7:30 7 9 mph 1017.3mb 42f 34f
7:24 6 11 mph 1017.3mb 42f 34f
7:18 6 10 mph 1017.3mb 42f 34f
7:12 5 8 mph 1017.2mb 42f 34f
7:06 7 8 mph 1017.4mb 42f 34f
7:00 6 7 mph 1017.6mb 42f 34f
6:54 5 7 mph 1017.5mb 42f 34f
6:48 5 6 mph 1017.5mb 42f 34f
6:36 5 7 mph 1017.4mb 42f 34f
6:30 6 8 mph 1017.3mb 42f 34f
6:24 6 8 mph 1017.4mb 42f 34f
6:18 6 8 mph 1017.5mb 42f 34f
6:12 6 9 mph 1017.5mb 42f 35f
6:06 7 9 mph 1017.5mb 42f 35f
6:00 6 8 mph 1017.6mb 42f 35f
5:54 6 7 mph 1017.7mb 42f 35f
5:48 5 7 mph 1017.8mb 42f 35f
5:36 6 8 mph 1017.8mb 42f 35f
5:30 7 9 mph 1017.9mb 42f 35f
5:24 5 7 mph 1018mb 43f 35f
5:18 5 8 mph 1017.9mb 42f 35f
5:12 6 9 mph 1017.8mb 43f 35f
5:06 7 9 mph 1017.8mb 43f 35f
5:00 5 7 mph 1018mb 42f 35f
4:54 6 9 mph 1018mb 43f 35f
4:48 6 8 mph 1018mb 43f 35f
4:36 6 8 mph 1018mb 43f 35f
4:30 7 9 mph 1017.9mb 43f 35f
4:24 5 7 mph 1018mb 43f 35f
4:18 6 7 mph 1018mb 43f 35f
4:12 6 7 mph 1018mb 43f 36f
4:06 6 9 mph 1018mb 43f 36f
4:00 7 8 mph 1018mb 43f 37f
3:54 5 6 mph 1018.1mb 43f 38f
3:48 5 10 mph 1018.1mb 43f 38f
3:36 6 11 mph 1018.2mb 43f 38f
3:30 8 11 mph 1018.2mb 43f 36f
3:24 5 9 mph 1018.3mb 43f 35f
3:18 6 8 mph 1018.3mb 43f 35f
3:12 7 10 mph 1018.3mb 43f 35f
3:06 6 9 mph 1018.5mb 43f 35f
3:00 6 8 mph 1018.6mb 43f 35f
2:54 3 6 mph 1018.7mb 43f 35f
2:48 3 6 mph 1018.7mb 43f 35f
2:36 3 6 mph 1019mb 43f 35f
2:30 3 5 mph 1019.1mb 43f 35f
2:24 2 5 mph 1019.2mb 43f 35f
2:18 3 8 mph 1019.2mb 43f 35f
2:12 6 8 mph 1019.1mb 43f 36f
2:06 3 8 mph 1019.4mb 43f 36f
2:00 3 6 mph 1019.4mb 43f 37f
1:54 5 10 mph 1019.5mb 43f 37f
1:48 6 9 mph 1019.4mb 43f 37f
1:36 6 8 mph 1019.4mb 43f 37f
1:30 6 9 mph 1019.4mb 43f 38f
1:24 5 8 mph 1019.4mb 43f 38f
1:18 3 8 mph 1019.5mb 43f 38f
1:12 7 13 mph 1019.5mb 43f 38f
1:06 7 13 mph 1019.5mb 43f 38f
1:00 7 16 mph 1019.5mb 43f 39f
12:54 8 16 mph 1019.7mb 43f 38f
12:48 11 17 mph 1019.8mb 43f 38f
12:36 16 21 mph 1020.1mb 43f 39f
12:30 10 15 mph 1020.1mb 44f 38f
12:24 3 10 mph 1020mb 43f 38f
12:18 6 9 mph 1020mb 43f 38f
12:12 7 11 mph 1020.2mb 43f 38f
12:06 8 13 mph 1020.2mb 43f 38f
12:00 3 8 mph 1020.4mb 43f 38f
dim. 12/04 11:54 5 8 mph 1020.5mb 44f 38f
11:48 7 10 mph 1020.6mb 44f 38f
11:36 5 7 mph 1020.6mb 44f 38f
11:30 5 9 mph 1020.6mb 44f 38f
11:24 2 5 mph 1020.6mb 43f 38f
11:18 3 5 mph 1020.6mb 43f 38f
11:12 3 6 mph 1020.6mb 43f 38f
11:06 2 7 mph 1020.5mb 43f 37f
11:00 5 7 mph 1020.4mb 43f 37f
10:54 5 7 mph 1020.6mb 43f 38f
10:48 5 7 mph 1020.7mb 43f 38f
10:36 5 7 mph 1020.8mb 43f 38f
10:30 5 6 mph 1020.8mb 43f 39f
10:24 2 6 mph 1020.9mb 43f 39f
10:18 5 7 mph 1021mb 43f 39f
10:12 7 9 mph 1021mb 43f 39f
10:06 9 16 mph 1021.1mb 44f 40f
10:00 13 17 mph 1021.2mb 44f 40f
9:54 13 20 mph 1021.2mb 44f 41f
9:48 13 21 mph 1021.3mb 45f 41f
9:36 14 18 mph 1021mb 43f 43f
9:30 10 13 mph 1020.6mb 43f 43f
9:24 9 13 mph 1020.5mb 43f 43f
9:18 8 10 mph 1020.4mb 43f 43f
9:12 6 8 mph 1020.3mb 43f 42f
9:06 6 9 mph 1020.3mb 43f 42f
9:00 6 8 mph 1020.3mb 43f 42f
8:54 6 8 mph 1020.4mb 43f 42f
8:48 5 9 mph 1020.4mb 44f 42f
8:36 6 8 mph 1020.4mb 44f 42f
8:30 5 9 mph 1020.3mb 44f 42f
8:24 7 10 mph 1020.4mb 44f 42f
8:18 9 11 mph 1020.5mb 44f 42f
8:12 10 14 mph 1020.5mb 44f 42f
8:06 11 16 mph 1020.6mb 44f 42f
8:00 10 15 mph 1020.6mb 44f 42f
7:54 11 16 mph 1020.5mb 44f 42f
7:48 11 16 mph 1020.5mb 43f 42f
7:36 11 15 mph 1020.5mb 44f 42f
7:30 10 21 mph 1020.4mb 44f 41f
7:24 17 24 mph 1020.5mb 45f 41f
7:18 17 25 mph 1020.7mb 45f 41f
7:12 20 28 mph 1020.9mb 45f 42f
7:06 22 29 mph 1021mb 45f 44f
7:00 16 23 mph 1020.8mb 43f 44f
6:54 13 18 mph 1020.7mb 43f 44f
6:48 14 17 mph 1020.7mb 43f 44f
6:36 11 15 mph 1020.6mb 43f 43f
6:30 10 13 mph 1020.5mb 43f 43f
6:24 10 16 mph 1020.4mb 43f 43f
6:18 11 16 mph 1020.5mb 43f 43f
6:12 11 17 mph 1020.6mb 44f 43f
6:06 11 16 mph 1020.5mb 43f 43f
6:00 14 17 mph 1020.6mb 43f 43f
5:54 13 20 mph 1020.6mb 43f 43f
5:48 14 21 mph 1020.8mb 44f 44f
5:36 17 24 mph 1021mb 44f 44f
5:30 20 24 mph 1021.1mb 44f 44f
5:24 18 23 mph 1021mb 44f 44f
5:18 18 25 mph 1020.8mb 44f 44f
5:12 22 26 mph 1021mb 43f 44f
5:06 20 23 mph 1020.8mb 44f 44f
5:00 21 25 mph 1020.8mb 44f 44f
4:54 20 26 mph 1020.7mb 44f 44f
4:48 22 28 mph 1020.8mb 44f 44f
4:36 21 25 mph 1020.9mb 44f 45f
4:30 20 28 mph 1020.8mb 43f 45f
4:24 22 28 mph 1020.8mb 43f 45f
4:18 23 28 mph 1020.8mb 43f 45f
4:12 24 29 mph 1020.8mb 43f 45f
4:06 21 26 mph 1020.7mb 43f 45f
4:00 22 28 mph 1020.7mb 43f 45f
3:54 22 28 mph 1020.8mb 43f 44f
3:48 21 26 mph 1020.8mb 44f 44f
3:36 20 29 mph 1020.9mb 45f 44f
3:30 24 30 mph 1020.9mb 45f 43f
3:24 22 32 mph 1021mb 46f 44f
3:18 23 31 mph 1021mb 46f 44f
3:12 29 33 mph 1021mb 46f 43f
3:06 29 37 mph 1021.2mb 46f 43f
3:00 31 38 mph 1021.1mb 46f 43f
2:54 30 39 mph 1021mb 46f 44f
2:48 31 37 mph 1020.9mb 46f 47f
2:36 24 29 mph 1020.2mb 44f 46f
2:30 20 25 mph 1020.2mb 45f 46f
2:24 22 26 mph 1020.3mb 45f 46f
2:18 23 26 mph 1020.3mb 45f 46f
2:12 22 26 mph 1020.2mb 45f 45f
2:06 22 29 mph 1020.3mb 45f 46f
2:00 20 25 mph 1020mb 45f 45f
1:54 21 29 mph 1020.1mb 45f 45f
1:48 23 26 mph 1020.3mb 45f 46f
1:36 21 29 mph 1020mb 45f 46f
1:30 18 24 mph 1019.8mb 45f 46f
1:24 22 25 mph 1020mb 44f 46f
1:18 16 24 mph 1019.9mb 45f 45f
1:12 20 24 mph 1020.1mb 44f 45f
1:06 21 26 mph 1020.1mb 44f 46f
1:00 18 22 mph 1020.1mb 45f 45f
12:54 18 24 mph 1020mb 45f 45f
12:48 22 28 mph 1020mb 44f 45f
12:36 28 32 mph 1020.1mb 45f 45f
12:30 30 34 mph 1020.2mb 44f 45f
12:24 31 36 mph 1020.3mb 44f 45f
12:18 28 33 mph 1020.2mb 44f 45f
12:12 29 36 mph 1020.2mb 45f 45f
12:06 30 34 mph 1020.1mb 45f 45f
12:00 29 34 mph 1020mb 45f 45f
11:54 26 33 mph 1020.1mb 45f 46f
11:48 29 37 mph 1020.1mb 44f 46f
11:36 30 37 mph 1020.3mb 44f 46f
11:30 29 38 mph 1020.1mb 44f 46f
11:24 28 36 mph 1020mb 44f 46f
11:18 29 36 mph 1020mb 44f 46f
11:12 28 36 mph 1020.1mb 44f 46f
11:06 30 36 mph 1020mb 44f 46f
11:00 29 33 mph 1020mb 43f 47f
10:54 24 32 mph 1019.8mb 44f 46f
10:48 28 34 mph 1019.5mb 43f 46f
10:36 21 29 mph 1019.6mb 43f 46f
10:30 22 31 mph 1019.5mb 43f 46f
10:24 28 36 mph 1019.5mb 43f 46f
10:18 28 32 mph 1019.4mb 43f 46f
10:12 26 32 mph 1019.3mb 43f 46f
10:06 29 33 mph 1019.3mb 43f 46f
10:00 23 30 mph 1019.2mb 43f 46f
9:36 24 31 mph 1019.1mb 44f 46f
9:30 23 29 mph 1019mb 44f 46f
9:24 25 31 mph 1018.8mb 44f 46f
9:18 23 30 mph 1018.8mb 44f 46f
9:12 23 26 mph 1018.7mb 43f 46f
9:06 21 28 mph 1018.6mb 43f 45f
9:00 21 23 mph 1018.5mb 43f 45f
8:54 24 31 mph 1018.5mb 43f 45f
8:48 23 33 mph 1018.7mb 43f 45f
8:36 25 33 mph 1018.5mb 43f 46f
8:30 24 31 mph 1018.6mb 43f 46f
8:24 23 30 mph 1018.5mb 43f 46f
8:18 23 29 mph 1018.5mb 43f 46f
8:12 23 32 mph 1018.4mb 43f 46f
8:06 25 30 mph 1018.4mb 43f 45f
8:00 26 30 mph 1018.4mb 43f 46f
7:54 23 30 mph 1018.4mb 43f 46f
7:48 24 30 mph 1018.2mb 43f 46f
7:36 23 31 mph 1018.1mb 44f 46f
7:30 23 32 mph 1018.2mb 44f 46f
7:24 25 32 mph 1018.2mb 43f 46f
7:18 24 33 mph 1018mb 43f 46f
7:12 24 31 mph 1018.1mb 43f 46f
7:06 24 29 mph 1018mb 43f 46f
7:00 25 31 mph 1018mb 43f 46f
6:54 28 32 mph 1018.1mb 44f 46f
6:48 24 30 mph 1018mb 44f 46f
6:36 24 31 mph 1018mb 44f 46f
6:30 24 31 mph 1018mb 44f 46f
6:24 22 32 mph 1018mb 44f 45f
6:18 23 32 mph 1018.3mb 44f 46f
6:12 23 30 mph 1018.2mb 44f 45f
6:06 23 29 mph 1018.1mb 44f 45f
6:00 21 29 mph 1018mb 44f 45f
5:36 20 28 mph 1018mb 44f 45f
5:30 23 29 mph 1018.2mb 44f 44f
5:24 16 23 mph 1018mb 44f 44f
5:18 16 21 mph 1018mb 44f 43f
5:12 15 21 mph 1017.9mb 44f 43f
5:06 18 23 mph 1018.2mb 44f 43f
5:00 16 24 mph 1018.2mb 44f 43f
4:54 21 25 mph 1018.4mb 44f 43f
4:48 22 36 mph 1018.6mb 45f 43f
4:36 23 28 mph 1018.3mb 46f 42f
4:30 15 28 mph 1018mb 46f 43f
4:24 21 32 mph 1018.1mb 46f 44f
4:18 25 43 mph 1018.1mb 46f 46f
4:12 26 32 mph 1018.1mb 44f 45f
4:06 16 26 mph 1017.8mb 45f 45f
4:00 20 25 mph 1018.1mb 45f 45f
3:54 23 26 mph 1018.1mb 45f 45f
3:48 22 34 mph 1018.2mb 46f 46f
3:36 14 22 mph 1017.9mb 45f 44f
3:30 20 36 mph 1018mb 45f 46f
3:24 23 29 mph 1018.4mb 44f 46f
3:18 22 28 mph 1018.5mb 44f 46f
3:12 23 28 mph 1018.4mb 44f 46f
3:06 23 29 mph 1018.5mb 44f 46f
3:00 26 31 mph 1018.6mb 44f 46f
2:54 26 31 mph 1018.6mb 44f 46f
2:48 23 30 mph 1018.6mb 45f 44f
2:36 14 18 mph 1018.3mb 45f 45f
2:30 14 16 mph 1018.3mb 45f 44f
2:24 14 25 mph 1018.5mb 45f 45f
2:18 17 25 mph 1018.9mb 45f 45f
2:12 15 20 mph 1018.6mb 45f 45f
2:06 15 22 mph 1018.8mb 45f 44f
2:00 17 25 mph 1018.9mb 45f 44f
1:54 24 30 mph 1019mb 46f 45f
1:48 22 30 mph 1019.1mb 45f 45f
1:36 16 22 mph 1018.8mb 45f 44f
1:30 21 26 mph 1019mb 46f 45f
1:24 18 24 mph 1019mb 45f 45f
1:18 23 28 mph 1019.1mb 46f 45f
1:12 26 32 mph 1019.2mb 46f 46f
1:06 22 30 mph 1019.2mb 45f 46f
1:00 17 22 mph 1018.9mb 44f 47f
12:54 20 23 mph 1019mb 44f 47f
12:48 20 23 mph 1019mb 44f 47f
12:36 18 24 mph 1019.2mb 44f 47f
12:30 17 23 mph 1019.2mb 44f 46f
12:24 20 25 mph 1019.4mb 44f 47f
12:18 21 28 mph 1019.4mb 44f 46f
12:12 15 20 mph 1019.2mb 44f 45f
12:06 17 21 mph 1019.4mb 45f 45f
12:00 17 21 mph 1019.6mb 45f 45f
sam. 12/03 11:54 20 25 mph 1019.7mb 45f 46f
11:48 16 22 mph 1019.6mb 45f 46f
11:36 20 26 mph 1019.7mb 45f 46f
11:30 15 21 mph 1019.5mb 44f 46f
11:24 18 22 mph 1019.6mb 45f 46f
11:18 17 22 mph 1019.6mb 44f 45f
11:12 14 20 mph 1019.6mb 44f 44f
11:06 22 26 mph 1019.8mb 45f 47f
11:00 13 20 mph 1019.5mb 44f 46f
10:54 13 16 mph 1019.6mb 44f 46f
10:48 11 15 mph 1019.6mb 44f 46f
10:36 11 17 mph 1019.9mb 44f 45f
10:30 14 20 mph 1020.1mb 44f 45f
10:24 16 23 mph 1020.2mb 44f 45f
10:18 21 23 mph 1020.3mb 45f 46f
10:12 14 18 mph 1020.1mb 45f 45f
10:06 15 18 mph 1020.1mb 45f 45f
10:00 18 22 mph 1020.2mb 44f 46f
9:54 17 22 mph 1020mb 44f 46f
9:48 17 21 mph 1020mb 44f 46f
9:36 15 20 mph 1020.1mb 44f 45f
9:30 17 23 mph 1020.3mb 44f 46f
9:24 17 22 mph 1020.4mb 45f 46f
9:18 14 22 mph 1020.1mb 44f 46f
9:12 16 21 mph 1020.4mb 44f 46f
9:06 16 20 mph 1020.4mb 44f 46f
9:00 16 20 mph 1020.5mb 44f 46f
8:54 14 17 mph 1020.4mb 44f 46f
8:48 13 17 mph 1020.4mb 44f 46f
8:36 13 20 mph 1020.5mb 44f 46f
8:30 17 23 mph 1020.7mb 45f 46f
8:24 16 22 mph 1020.9mb 45f 45f
8:18 18 23 mph 1020.9mb 45f 45f
8:12 18 25 mph 1020.9mb 45f 45f
8:06 20 23 mph 1021.3mb 45f 45f
8:00 20 25 mph 1021.1mb 45f 46f
7:54 20 25 mph 1021.1mb 45f 46f
7:48 21 25 mph 1021.1mb 45f 46f
7:36 13 18 mph 1020.7mb 45f 47f
7:30 13 17 mph 1020.7mb 45f 47f
7:24 14 17 mph 1020.7mb 45f 46f
7:18 15 23 mph 1020.7mb 45f 47f
7:12 16 23 mph 1020.9mb 45f 47f
7:06 17 23 mph 1021mb 45f 48f
7:00 18 24 mph 1021.1mb 45f 47f
6:54 17 23 mph 1021mb 45f 47f
6:48 18 22 mph 1021.1mb 45f 47f
6:36 13 20 mph 1020.8mb 45f 48f
6:30 17 22 mph 1020.9mb 45f 48f
6:24 11 14 mph 1020.7mb 45f 48f
6:18 9 14 mph 1020.9mb 45f 48f
6:12 9 13 mph 1021mb 45f 48f
6:06 11 14 mph 1021.2mb 45f 48f
6:00 11 15 mph 1021.2mb 45f 48f
5:54 11 15 mph 1021.3mb 45f 48f
5:48 13 15 mph 1021.4mb 45f 48f
5:36 11 20 mph 1021.4mb 45f 48f
5:30 15 20 mph 1021.6mb 45f 48f
5:24 15 18 mph 1021.4mb 45f 48f
5:18 14 17 mph 1021.4mb 45f 48f
5:12 16 20 mph 1021.6mb 45f 48f
5:06 17 24 mph 1021.9mb 45f 49f
5:00 15 17 mph 1021.9mb 45f 49f
4:54 15 21 mph 1021.9mb 45f 48f
4:48 14 16 mph 1022mb 45f 48f
4:36 15 22 mph 1022.4mb 45f 48f
4:30 16 20 mph 1022.5mb 45f 47f
4:24 14 16 mph 1022.5mb 45f 47f
4:18 14 17 mph 1022.6mb 45f 47f
4:12 13 17 mph 1022.8mb 46f 47f
4:06 15 21 mph 1022.8mb 46f 48f
4:00 13 17 mph 1022.8mb 46f 47f
3:54 16 22 mph 1022.9mb 46f 49f
3:48 14 17 mph 1022.8mb 46f 49f
3:36 13 18 mph 1023mb 45f 49f
3:30 15 22 mph 1022.9mb 45f 50f
3:24 18 23 mph 1023.1mb 45f 51f
3:18 18 22 mph 1023.2mb 45f 50f
3:12 14 18 mph 1023.2mb 45f 49f
3:06 10 16 mph 1023.2mb 45f 49f
3:00 15 23 mph 1023mb 45f 49f
2:54 16 24 mph 1023.2mb 46f 50f
2:48 14 17 mph 1023.3mb 45f 50f
2:36 13 20 mph 1023.1mb 44f 50f
2:30 14 18 mph 1023.1mb 45f 50f
2:24 13 16 mph 1023.3mb 44f 50f
2:18 13 17 mph 1023.5mb 44f 50f
2:12 13 16 mph 1023.7mb 44f 50f
2:06 13 17 mph 1023.7mb 45f 50f
2:00 14 17 mph 1023.9mb 45f 50f
1:54 14 16 mph 1024.1mb 45f 50f
1:48 14 17 mph 1024.2mb 45f 50f
1:36 13 18 mph 1024mb 45f 50f
1:30 10 17 mph 1024.2mb 45f 50f
1:24 15 17 mph 1024.2mb 45f 50f
1:18 10 14 mph 1024.1mb 45f 49f
1:12 8 15 mph 1024.2mb 45f 49f
1:06 9 17 mph 1024.4mb 45f 48f
1:00 11 22 mph 1024.5mb 45f 50f
12:54 14 17 mph 1024.7mb 45f 49f
12:48 15 20 mph 1024.7mb 45f 49f
12:36 17 21 mph 1025mb 45f 50f
12:30 15 20 mph 1025mb 45f 51f
12:24 15 18 mph 1025.3mb 45f 51f
12:18 13 15 mph 1025.1mb 45f 51f
12:12 13 16 mph 1025.2mb 45f 51f
12:06 11 14 mph 1025.1mb 45f 50f
12:00 7 10 mph 1025mb 45f 49f
11:54 6 8 mph 1025mb 45f 49f
11:48 6 9 mph 1025.3mb 44f 49f
11:36 6 17 mph 1025.5mb 45f 47f
11:30 18 26 mph 1025.7mb 45f 49f
11:24 13 16 mph 1025.8mb 46f 50f
11:18 9 13 mph 1025.7mb 46f 50f
11:12 7 14 mph 1025.8mb 45f 50f
11:06 9 15 mph - - 50f
11:00 13 15 mph 1025.3mb 45f 50f
10:54 11 17 mph 1025.4mb 45f 50f
10:48 10 16 mph 1025.4mb 45f 50f
10:36 7 8 mph 1025.5mb 45f 49f
10:30 6 9 mph 1025.4mb 45f 48f
10:24 8 17 mph 1025.7mb 45f 48f
10:18 17 22 mph 1025.9mb 46f 50f
10:12 13 17 mph 1025.8mb 45f 51f
10:06 10 15 mph 1025.5mb 44f 50f
10:00 9 16 mph 1025.6mb 44f 51f
9:54 13 17 mph 1025.8mb 45f 51f
9:48 11 14 mph 1025.7mb 45f 50f
9:36 6 11 mph 1025.3mb 45f 49f
9:30 7 9 mph 1025.2mb 45f 49f
9:24 7 9 mph 1025mb 45f 45f
9:18 3 9 mph 1025.1mb 45f 44f
9:12 5 6 mph 1025.4mb 45f 44f
9:06 6 7 mph 1025.1mb 45f 43f
9:00 3 6 mph 1025.1mb 45f 43f
8:54 5 7 mph 1025.1mb 45f 43f
8:48 6
mph
1025.4mb 45f 43f
8:36 5 7 mph 1025.5mb 45f 43f
8:30 6 7 mph 1025.5mb 45f 43f
8:24 5 7 mph 1025.3mb 45f 44f
8:18 6 7 mph 1025.1mb 45f 44f
8:12 7
mph
1024.8mb 45f 44f
8:06 5 6 mph 1025.2mb 45f 46f
8:00 2 6 mph 1025mb 45f 48f
7:54 5 7 mph 1024.8mb 45f 48f
7:48 6 8 mph 1025.1mb 45f 48f
7:36 13 21 mph 1025.5mb 45f 48f
7:30 15 18 mph 1025.5mb 45f 49f
7:24 13 17 mph 1025.4mb 45f 50f
7:18 11 14 mph 1025.6mb 45f 46f
7:12 2 7 mph 1025.3mb 45f 49f
7:06 7 8 mph 1025.4mb 45f 48f
7:00 8 10 mph 1025.5mb 45f 48f
6:54 8 14 mph 1025.6mb 45f 47f
6:48 11 20 mph 1025.6mb 45f 48f
6:36 11 16 mph 1025.4mb 45f 50f
6:30 11 14 mph 1025.3mb 45f 50f
6:24 10 17 mph 1025.3mb 45f 49f
6:18 13 16 mph 1025.4mb 45f 49f
6:12 8 9 mph 1025.3mb 45f 48f
6:06 7 9 mph 1025.4mb 45f 48f
6:00 6 7 mph 1025.1mb 45f 46f
5:54 6 7 mph 1024.8mb 45f 45f
5:48 7 9 mph 1025mb 45f 45f
5:36 20 24 mph 1025.6mb 46f 49f
5:30 7 10 mph 1024.9mb 45f 49f
5:24 8 11 mph 1025mb 45f 49f
5:18 10 14 mph 1025mb 45f 49f
5:12 13 15 mph 1025mb 46f 49f
5:06 8 11 mph 1024.8mb 45f 49f
5:00 6 9 mph 1024.7mb 45f 48f
4:54 6 13 mph 1024.6mb 45f 48f
4:48 10 21 mph 1024.9mb 46f 48f
4:36 16 20 mph 1025.1mb 45f 50f
4:30 13 16 mph 1024.9mb 45f 50f
4:24 15 17 mph 1024.9mb 45f 49f
4:18 14 15 mph 1025mb 45f 50f
4:12 14 16 mph 1024.9mb 45f 50f
4:06 11 14 mph 1024.8mb 45f 50f
4:00 10 14 mph 1024.8mb 45f 49f
3:54 7 10 mph 1024.8mb 45f 49f
3:48 9 11 mph 1024.8mb 46f 49f
3:36 11 16 mph 1024.9mb 46f 48f
3:30 15 21 mph 1024.9mb 46f 47f
3:24 16 25 mph 1024.9mb 46f 48f
3:18 22 28 mph 1025.1mb 47f 51f
3:12 11 16 mph 1024.5mb 45f 51f
3:06 14 17 mph 1024.6mb 45f 51f
3:00 14 18 mph 1024.6mb 45f 51f
2:54 15 18 mph 1024.6mb 45f 51f
2:48 15 18 mph 1024.4mb 45f 51f
2:36 15 18 mph 1024.4mb 45f 51f
2:30 14 17 mph 1024.3mb 45f 51f
2:24 14 20 mph 1024.3mb 45f 51f
2:18 15 21 mph 1024.5mb 45f 51f
2:12 15 20 mph 1024.6mb 45f 51f
2:06 16 20 mph 1024.4mb 46f 51f
2:00 16 21 mph 1024.3mb 45f 51f
1:54 14 18 mph 1024.1mb 45f 51f
1:48 16 22 mph 1024.4mb 45f 51f
1:36 16 18 mph 1024.2mb 45f 51f
1:30 14 16 mph 1024.1mb 45f 51f
1:24 13 18 mph 1024mb 45f 51f
1:18 15 18 mph 1024mb 45f 51f
1:12 11 16 mph 1023.9mb 45f 49f
1:06 8 10 mph 1023.9mb 45f 49f
1:00 8 13 mph 1024mb 45f 50f
12:54 8 10 mph 1024mb 45f 49f
12:48 9 13 mph 1023.9mb 45f 49f
12:36 8 11 mph 1023.9mb 45f 49f
12:30 9 13 mph 1023.9mb 45f 49f
12:24 10 15 mph 1024mb 45f 49f
12:18 11 17 mph 1024mb 45f 49f
12:12 16 18 mph 1024.1mb 46f 49f
12:06 14 22 mph 1024mb 45f 48f
12:00 16 24 mph 1024.1mb 46f 48f
ven. 12/02 11:54 21 26 mph 1024.1mb 47f 50f
11:48 11 16 mph 1023.8mb 46f 49f
11:36 17 24 mph 1023.8mb 46f 48f
11:30 20 30 mph 1023.8mb 46f 49f
11:24 22 29 mph 1024mb 45f 51f
11:18 14 21 mph 1023.5mb 45f 51f
11:12 13 20 mph 1023.3mb 45f 51f
11:06 14 20 mph 1023.2mb 45f 51f
11:00 16 20 mph 1023.1mb 45f 51f
10:54 17 21 mph 1023mb 45f 51f
10:48 16 21 mph 1022.8mb 45f 51f
10:36 13 16 mph 1022.4mb 45f 51f
10:30 11 16 mph 1022.4mb 45f 51f
10:24 13 17 mph 1022.4mb 45f 51f
10:18 14 18 mph 1022.5mb 45f 51f
10:12 14 17 mph 1022.4mb 45f 51f
10:06 13 16 mph 1022.3mb 45f 51f
10:00 11 16 mph 1022.3mb 45f 50f
9:54 14 21 mph 1022.3mb 45f 50f
9:48 18 22 mph 1022.4mb 45f 51f
9:36 17 21 mph 1022mb 45f 51f
9:30 15 21 mph 1022mb 45f 51f
9:24 15 20 mph 1021.9mb 45f 51f
9:18 14 18 mph 1021.8mb 45f 51f
9:12 15 18 mph 1021.7mb 45f 51f
9:06 14 17 mph 1021.7mb 45f 51f
9:00 14 17 mph 1021.7mb 45f 51f
8:54 13 17 mph 1021.7mb 45f 51f
8:48 10 15 mph 1021.7mb 45f 50f
8:36 10 11 mph 1021.8mb 46f 50f
8:30 9 13 mph 1021.6mb 46f 49f
8:24 9 14 mph 1021.5mb 46f 49f
8:18 10 17 mph 1021.5mb 46f 49f
8:12 15 20 mph 1021.6mb 46f 49f
8:06 16 22 mph 1021.5mb 47f 50f
8:00 17 23 mph 1021.5mb 45f 50f
7:54 18 24 mph 1021.6mb 45f 51f
7:48 20 23 mph 1021.4mb 45f 51f
7:36 15 20 mph 1021mb 45f 51f
7:30 15 21 mph 1020.9mb 45f 51f
7:24 15 21 mph 1020.7mb 46f 51f
7:18 14 18 mph 1020.8mb 46f 51f
7:12 14 20 mph 1020.8mb 46f 51f
7:06 14 21 mph 1020.7mb 46f 51f
7:00 15 20 mph 1020.8mb 46f 51f
6:54 15 18 mph 1020.7mb 46f 51f
6:48 13 18 mph 1020.7mb 46f 51f
6:36 15 22 mph 1020.7mb 46f 51f
6:30 16 22 mph 1020.8mb 46f 50f
6:24 18 22 mph 1020.7mb 47f 50f
6:18 16 24 mph 1020.6mb 46f 50f
6:12 22 25 mph 1020.9mb 46f 50f
6:06 21 26 mph 1020.7mb 46f 50f
6:00 23 29 mph 1020.9mb 46f 51f
5:54 16 21 mph 1020.5mb 45f 51f
5:48 17 22 mph 1020.4mb 45f 51f
5:36 16 22 mph 1020.3mb 45f 51f
5:30 17 22 mph 1020.1mb 45f 52f
5:24 17 23 mph 1020.2mb 45f 52f
5:18 18 22 mph 1020.3mb 45f 52f
5:12 16 20 mph 1020.1mb 45f 52f
5:06 17 21 mph 1020mb 45f 52f
5:00 14 21 mph 1020mb 45f 52f
4:54 14 21 mph 1020mb 45f 52f
4:48 11 21 mph 1019.9mb 45f 52f
4:36 18 22 mph 1019.9mb 45f 52f
4:30 17 21 mph 1020mb 45f 52f
4:24 16 21 mph 1020.1mb 45f 52f
4:18 15 21 mph 1019.9mb 45f 52f